Weather History for KPSK - November, 2012

Change the Weather History Date:

Friday, November 23, 2012

  Actual Average (KBCB) Record (KBCB)
Temperature  
Mean Temperature 42 °F 41 °F  
Max Temperature 55 °F 52 °F 68 °F (2003)
Min Temperature 28 °F 29 °F 10 °F (1971)
Degree Days  
Heating Degree Days 24 24  
Month to date heating degree days 471  
Since 1 July heating degree days 998  
Cooling Degree Days 0 0  
Month to date cooling degree days 0  
Year to date cooling degree days 573  
Moisture  
Dew Point 34 °F    
Average Humidity 69    
Maximum Humidity 93    
Minimum Humidity 53    
Precipitation  
Precipitation 0.00 in 0.10 in 1.17 in (1992)
Month to date precipitation 2.18  
Year to date precipitation 37.25  
Snow  
Snow 0.00 in - - ()
Month to date snowfall  
Since 1 July snowfall  
Since 1 September snowfall  
Snow Depth -    
Sea Level Pressure  
Sea Level Pressure 30.04 in    
Wind  
Wind Speed 5 mph (WSW)    
Max Wind Speed 23 mph    
Max Gust Speed 33 mph    
Visibility 10 miles    
Events      
T = Trace of Precipitation, MM = Missing Value Source: NWS Daily Summary

Daily Weather History Graph

Daily Weather History Graph

Search for Another Location

Airport or City:

Trip Planner

Search our weather history database for the weather conditions in past years. The results will help you decide how hot, cold, wet, or windy it might be!

Date:

Astronomy

Nov. 23, 2012 Rise Set
Actual Time 7:10 AM EST 5:07 PM EST
Civil Twilight 6:42 AM EST 5:36 PM EST
Nautical Twilight 6:10 AM EST 6:08 PM EST
Astronomical Twilight 5:39 AM EST 6:39 PM EST
Moon 2:17 PM EST (11/23) 2:33 AM EST (11/23)
Length of Visible Light 10h 54m
Length of Day
9h 57m
Waxing Gibbous, 79% of the Moon is Illuminated
Nov 23
Waxing Gibbous
Nov 28
Full
Dec 6
Last Quarter
Dec 13
New
Dec 20
First Quarter

Hourly Weather History & Observations

Time (EST) Temp. Windchill Dew Point Humidity Pressure Visibility Wind Dir Wind Speed Gust Speed Precip Events Conditions
12:15 AM 33.8 °F - 28.4 °F 81% 30.17 in 10.0 mi Calm Calm - N/A   Clear
12:35 AM 35.6 °F - 26.6 °F 70% 30.17 in 10.0 mi Calm Calm - N/A   Clear
12:55 AM 33.8 °F - 26.6 °F 75% 30.16 in 10.0 mi Calm Calm - N/A   Clear
1:15 AM 33.8 °F - 26.6 °F 75% 30.16 in 10.0 mi Calm Calm - N/A   Clear
1:35 AM 33.8 °F - 26.6 °F 75% 30.16 in 10.0 mi Calm Calm - N/A   Clear
1:55 AM 33.8 °F - 26.6 °F 75% 30.15 in 10.0 mi Calm Calm - N/A   Clear
2:15 AM 30.2 °F - 24.8 °F 80% 30.16 in 10.0 mi Calm Calm - N/A   Clear
2:35 AM 30.2 °F - 24.8 °F 80% 30.16 in 10.0 mi Calm Calm - N/A   Clear
2:55 AM 32.0 °F - 26.6 °F 80% 30.16 in 10.0 mi Calm Calm - N/A   Clear
3:15 AM 30.2 °F - 24.8 °F 80% 30.15 in 10.0 mi Calm Calm - N/A   Clear
3:35 AM 30.2 °F - 26.6 °F 86% 30.15 in 10.0 mi Calm Calm - N/A   Clear
3:55 AM 28.4 °F 24.6 °F 26.6 °F 93% 30.14 in 10.0 mi SSW 3.5 mph - N/A   Clear
4:15 AM 30.2 °F - 26.6 °F 86% 30.14 in 10.0 mi Calm Calm - N/A   Clear
4:35 AM 28.4 °F 23.3 °F 24.8 °F 86% 30.14 in 10.0 mi SSW 4.6 mph - N/A   Clear
4:55 AM 30.2 °F 26.7 °F 26.6 °F 86% 30.14 in 10.0 mi SW 3.5 mph - N/A   Clear
5:15 AM 28.4 °F - 24.8 °F 86% 30.13 in 10.0 mi Calm Calm - N/A   Clear
5:35 AM 30.2 °F 26.7 °F 28.4 °F 93% 30.13 in 10.0 mi SSW 3.5 mph - N/A   Clear
5:55 AM 28.4 °F - 26.6 °F 93% 30.12 in 10.0 mi Calm Calm - N/A   Clear
6:15 AM 28.4 °F 24.6 °F 26.6 °F 93% 30.12 in 10.0 mi West 3.5 mph - N/A   Clear
6:35 AM 30.2 °F 26.7 °F 26.6 °F 86% 30.11 in 10.0 mi SW 3.5 mph - N/A   Clear
6:55 AM 33.8 °F - 30.2 °F 87% 30.11 in 10.0 mi Calm Calm - N/A   Clear
7:15 AM 33.8 °F - 30.2 °F 87% 30.10 in 10.0 mi Calm Calm - N/A   Clear
7:35 AM 35.6 °F 32.8 °F 30.2 °F 81% 30.10 in 10.0 mi West 3.5 mph - N/A   Clear
7:55 AM 33.8 °F - 30.2 °F 87% 30.09 in 10.0 mi Calm Calm - N/A   Clear
8:15 AM 37.4 °F 34.9 °F 33.8 °F 87% 30.09 in 10.0 mi WSW 3.5 mph - N/A   Clear
8:35 AM 37.4 °F - 35.6 °F 93% 30.09 in 10.0 mi Calm Calm - N/A   Clear
8:55 AM 46.4 °F 44.3 °F 37.4 °F 71% 30.09 in 10.0 mi SSW 4.6 mph - N/A   Clear
9:15 AM 48.2 °F - 39.2 °F 71% 30.09 in 10.0 mi SW 6.9 mph - N/A   Clear
9:35 AM 51.8 °F - 39.2 °F 62% 30.07 in 10.0 mi SSW 9.2 mph - N/A   Clear
9:55 AM 53.6 °F - 39.2 °F 58% 30.06 in 10.0 mi SW 6.9 mph - N/A   Clear
10:15 AM 55.4 °F - 39.2 °F 54% 30.05 in 10.0 mi SW 10.4 mph - N/A   Clear
10:35 AM 55.4 °F - 39.2 °F 54% 30.06 in 10.0 mi SW 11.5 mph - N/A   Clear
10:55 AM 55.4 °F - 39.2 °F 54% 30.05 in 10.0 mi SSW 11.5 mph - N/A   Clear
11:15 AM 55.4 °F - 39.2 °F 54% 30.05 in 10.0 mi SSW 11.5 mph - N/A   Clear
11:35 AM 55.4 °F - 39.2 °F 54% 30.03 in 10.0 mi SSW 6.9 mph - N/A   Clear
11:55 AM 55.4 °F - 39.2 °F 54% 30.02 in 10.0 mi SW 9.2 mph - N/A   Clear
12:15 PM 55.4 °F - 39.2 °F 54% 30.01 in 10.0 mi SW 10.4 mph - N/A   Clear
12:35 PM 55.4 °F - 39.2 °F 54% 29.98 in 10.0 mi SW 8.1 mph - N/A   Scattered Clouds
12:55 PM 55.4 °F - 41.0 °F 58% 29.97 in 10.0 mi SW 9.2 mph - N/A   Scattered Clouds
1:15 PM 55.4 °F - 39.2 °F 54% 29.96 in 10.0 mi SSW 10.4 mph - N/A   Scattered Clouds
1:35 PM 55.4 °F - 41.0 °F 58% 29.96 in 10.0 mi SSW 8.1 mph - N/A   Mostly Cloudy
1:55 PM 55.4 °F - 41.0 °F 58% 29.95 in 10.0 mi SW 8.1 mph - N/A   Overcast
2:15 PM 55.4 °F - 42.8 °F 63% 29.94 in 10.0 mi WSW 8.1 mph - N/A   Overcast
2:35 PM 55.4 °F - 42.8 °F 63% 29.94 in 10.0 mi West 5.8 mph - N/A   Overcast
2:55 PM 55.4 °F - 42.8 °F 63% 29.93 in 10.0 mi West 8.1 mph - N/A   Overcast
3:15 PM 55.4 °F - 42.8 °F 63% 29.93 in 10.0 mi West 9.2 mph - N/A   Overcast
3:35 PM 55.4 °F - 44.6 °F 67% 29.94 in 10.0 mi WSW 21.9 mph 28.8 mph N/A   Overcast
3:55 PM 55.4 °F - 42.8 °F 63% 29.94 in 10.0 mi West 13.8 mph - N/A   Overcast
4:15 PM 53.6 °F - 42.8 °F 67% 29.95 in 10.0 mi West 11.5 mph 17.3 mph N/A   Overcast
4:35 PM 53.6 °F - 42.8 °F 67% 29.96 in 10.0 mi West 12.7 mph 17.3 mph N/A   Overcast
4:55 PM 53.6 °F - 42.8 °F 67% 29.96 in 10.0 mi West 11.5 mph - N/A   Overcast
5:15 PM 53.6 °F - 42.8 °F 67% 29.96 in 10.0 mi West 10.4 mph - N/A   Overcast
5:35 PM 51.8 °F - 42.8 °F 71% 29.96 in 10.0 mi West 9.2 mph - N/A   Overcast
5:55 PM 51.8 °F - 42.8 °F 71% 29.97 in 10.0 mi WNW 10.4 mph - N/A   Overcast
6:15 PM 50.0 °F - 42.8 °F 76% 29.96 in 10.0 mi West 9.2 mph 17.3 mph N/A   Mostly Cloudy
6:35 PM 48.2 °F - 42.8 °F 82% 29.97 in 10.0 mi WNW 9.2 mph 16.1 mph N/A   Mostly Cloudy
6:55 PM 48.2 °F - 37.4 °F 66% 29.98 in 10.0 mi West 17.3 mph 23.0 mph N/A   Mostly Cloudy
7:15 PM 48.2 °F - 35.6 °F 62% 29.98 in 10.0 mi NW 13.8 mph - N/A   Scattered Clouds
7:35 PM 46.4 °F 39.2 °F 32.0 °F 57% 29.98 in 10.0 mi WNW 18.4 mph 24.2 mph N/A   Scattered Clouds
7:55 PM 46.4 °F 40.7 °F 32.0 °F 57% 29.98 in 10.0 mi West 12.7 mph 21.9 mph N/A   Scattered Clouds
8:15 PM 44.6 °F 38.8 °F 30.2 °F 57% 29.98 in 10.0 mi West 11.5 mph - N/A   Scattered Clouds
8:35 PM 44.6 °F 37.8 °F 30.2 °F 57% 29.98 in 10.0 mi West 15.0 mph 24.2 mph N/A   Scattered Clouds
8:55 PM 44.6 °F 37.8 °F 30.2 °F 57% 29.98 in 10.0 mi West 15.0 mph 20.7 mph N/A   Mostly Cloudy
9:15 PM 44.6 °F 37.2 °F 30.2 °F 57% 29.98 in 10.0 mi WNW 17.3 mph 25.3 mph N/A   Overcast
9:35 PM 44.6 °F 38.1 °F 30.2 °F 57% 29.98 in 10.0 mi WNW 13.8 mph 17.3 mph N/A   Mostly Cloudy
9:55 PM 42.8 °F 37.0 °F 30.2 °F 61% 29.98 in 10.0 mi WNW 10.4 mph - N/A   Mostly Cloudy
10:15 PM 42.8 °F 34.3 °F 28.4 °F 57% 29.98 in 10.0 mi WNW 19.6 mph 24.2 mph N/A   Mostly Cloudy
10:35 PM 42.8 °F 33.5 °F 26.6 °F 53% 29.98 in 10.0 mi NW 23.0 mph 29.9 mph N/A   Scattered Clouds
10:55 PM 41.0 °F 32.8 °F 26.6 °F 57% 29.98 in 10.0 mi WNW 16.1 mph 33.4 mph N/A   Scattered Clouds
11:15 PM 39.2 °F 31.2 °F 26.6 °F 61% 29.98 in 10.0 mi WNW 13.8 mph 17.3 mph N/A   Scattered Clouds
11:35 PM 39.2 °F 30.5 °F 26.6 °F 61% 29.98 in 10.0 mi NW 16.1 mph 23.0 mph N/A   Mostly Cloudy
11:55 PM 39.2 °F 30.2 °F 26.6 °F 61% 29.98 in 10.0 mi WNW 17.3 mph 25.3 mph N/A   Mostly Cloudy